TimeEST,TemperatureF,Dew PointF,Humidity,Sea Level PressureIn,VisibilityMPH,Wind Direction,Wind SpeedMPH,Gust SpeedMPH,PrecipitationIn,Events,Conditions,WindDirDegrees,DateUTC
12:54 AM,32.0,24.1,73,29.86,10.0,West,6.9,-,N/A,,Scattered Clouds,270,2013-03-02 05:54:00
1:54 AM,32.0,23.0,69,29.86,10.0,West,5.8,-,N/A,,Scattered Clouds,260,2013-03-02 06:54:00
2:54 AM,30.0,23.0,75,29.85,10.0,West,6.9,-,N/A,,Scattered Clouds,280,2013-03-02 07:54:00
3:54 AM,30.0,21.9,72,29.85,10.0,West,5.8,-,N/A,,Scattered Clouds,260,2013-03-02 08:54:00
4:54 AM,30.9,24.1,76,29.86,10.0,West,6.9,-,N/A,,Mostly Cloudy,270,2013-03-02 09:54:00
5:54 AM,32.0,23.0,69,29.86,10.0,WNW,5.8,-,N/A,,Mostly Cloudy,300,2013-03-02 10:54:00
6:54 AM,33.1,23.0,66,29.86,10.0,NW,10.4,-,N/A,,Mostly Cloudy,310,2013-03-02 11:54:00
7:54 AM,34.0,23.0,64,29.87,10.0,NW,11.5,16.1,N/A,,Mostly Cloudy,310,2013-03-02 12:54:00
8:54 AM,34.0,21.9,61,29.87,10.0,NW,11.5,21.9,N/A,,Mostly Cloudy,320,2013-03-02 13:54:00
9:54 AM,35.1,19.9,54,29.87,10.0,WNW,9.2,-,N/A,,Mostly Cloudy,300,2013-03-02 14:54:00
10:54 AM,36.0,19.0,50,29.86,10.0,WNW,10.4,-,N/A,,Mostly Cloudy,300,2013-03-02 15:54:00
11:54 AM,36.0,21.9,57,29.84,10.0,WNW,12.7,18.4,N/A,,Overcast,300,2013-03-02 16:54:00
12:54 PM,36.0,21.0,55,29.82,10.0,WNW,10.4,-,N/A,,Overcast,300,2013-03-02 17:54:00
1:54 PM,37.0,21.9,54,29.81,10.0,WNW,9.2,-,N/A,,Mostly Cloudy,290,2013-03-02 18:54:00
2:54 PM,37.0,21.9,54,29.80,10.0,WNW,15.0,23.0,N/A,,Mostly Cloudy,300,2013-03-02 19:54:00
3:20 PM,35.6,23.0,60,29.80,10.0,WNW,11.5,-,0.00,Snow,Light Snow,300,2013-03-02 20:20:00
3:54 PM,36.0,21.0,55,29.80,9.0,WNW,15.0,20.7,0.00,,Mostly Cloudy,290,2013-03-02 20:54:00
4:54 PM,37.0,21.0,52,29.81,10.0,West,13.8,25.3,N/A,,Mostly Cloudy,280,2013-03-02 21:54:00
5:54 PM,35.1,19.0,52,29.82,10.0,NW,12.7,-,N/A,,Mostly Cloudy,310,2013-03-02 22:54:00
6:54 PM,33.1,19.0,56,29.83,10.0,West,8.1,-,N/A,,Scattered Clouds,280,2013-03-02 23:54:00
7:54 PM,33.1,19.0,56,29.83,10.0,WNW,8.1,-,N/A,,Mostly Cloudy,290,2013-03-03 00:54:00
8:54 PM,32.0,19.0,59,29.84,10.0,WNW,10.4,-,N/A,,Scattered Clouds,290,2013-03-03 01:54:00
9:54 PM,30.9,19.0,61,29.84,10.0,WNW,10.4,-,N/A,,Partly Cloudy,300,2013-03-03 02:54:00
10:54 PM,30.9,19.9,64,29.84,10.0,WNW,8.1,-,N/A,,Mostly Cloudy,300,2013-03-03 03:54:00
11:54 PM,30.0,19.9,66,29.83,10.0,WNW,5.8,-,N/A,,Mostly Cloudy,300,2013-03-03 04:54:00